This is the latest recevied weather packets stored in our database for station/object SP9WP-10. If no packets are shown the sender has not sent any weather packets the latest 10 day(s).
| Time | Temp. | Humidity | Pressure | Rain* | Wind** | Luminosity | Snow |
|---|---|---|---|---|---|---|---|
| 1788141033 | 23.89° C | 57% | 992.9 hPa | - | - | - | - |
| 1788140433 | 23.89° C | 57% | 993 hPa | - | - | - | - |
| 1788139832 | 23.89° C | 57% | 992.9 hPa | - | - | - | - |
| 1788139232 | 24.44° C | 57% | 992.9 hPa | - | - | - | - |
| 1788138632 | 24.44° C | 56% | 992.9 hPa | - | - | - | - |
| 1788138032 | 24.44° C | 56% | 993 hPa | - | - | - | - |
| 1788137432 | 24.44° C | 56% | 993.1 hPa | - | - | - | - |
| 1788136832 | 25° C | 56% | 993.1 hPa | - | - | - | - |
| 1788136232 | 25° C | 56% | 993.1 hPa | - | - | - | - |
| 1788135631 | 25° C | 55% | 993.2 hPa | - | - | - | - |
| 1788135031 | 25° C | 56% | 993.2 hPa | - | - | - | - |
| 1788134431 | 25.56° C | 56% | 993.2 hPa | - | - | - | - |
| 1788133831 | 25.56° C | 55% | 993.2 hPa | - | - | - | - |
| 1788133231 | 25.56° C | 55% | 993.3 hPa | - | - | - | - |
| 1788132631 | 25.56° C | 55% | 993.3 hPa | - | - | - | - |
| 1788132031 | 25.56° C | 55% | 993.3 hPa | - | - | - | - |
| 1788131430 | 25.56° C | 55% | 993.3 hPa | - | - | - | - |
| 1788130830 | 25.56° C | 55% | 993.2 hPa | - | - | - | - |
| 1788130230 | 25.56° C | 56% | 993.2 hPa | - | - | - | - |
| 1788129630 | 25.56° C | 58% | 993.2 hPa | - | - | - | - |
| 1788129030 | 26.11° C | 57% | 993.4 hPa | - | - | - | - |
| 1788128430 | 26.11° C | 55% | 993.3 hPa | - | - | - | - |
| 1788127830 | 26.11° C | 56% | 993.2 hPa | - | - | - | - |
| 1788127229 | 26.11° C | 60% | 993.2 hPa | - | - | - | - |
| 1788126629 | 26.11° C | 56% | 993.2 hPa | - | - | - | - |
* Rain since midnight (hover to see other rain measurements)
** Current wind speed in m/s (hover to see current wind gust speed)